Time,TemperatureF,DewpointF,PressureIn,WindDirection,WindDirectionDegrees,WindSpeedMPH,WindSpeedGustMPH,Humidity,HourlyPrecipIn,Conditions,Clouds,dailyrainin,SoftwareType,DateUTC
2013-09-14 00:14:00,61.7,54.0,29.93,NW,307,0.0,0.0,75,0.00,,,0.00,weatherlink.com 1.10,2013-09-14 04:14:00,
2013-09-14 00:29:00,60.2,54.0,29.94,NW,307,0.0,0.0,80,0.00,,,0.00,weatherlink.com 1.10,2013-09-14 04:29:00,
2013-09-14 00:44:00,60.0,53.0,29.94,WNW,299,0.0,1.0,78,0.00,,,0.00,weatherlink.com 1.10,2013-09-14 04:44:00,
2013-09-14 00:59:00,59.6,54.0,29.94,WNW,299,0.0,0.0,81,0.00,,,0.00,weatherlink.com 1.10,2013-09-14 04:59:00,
2013-09-14 01:14:00,58.2,54.0,29.94,WNW,299,0.0,0.0,85,0.00,,,0.00,weatherlink.com 1.10,2013-09-14 05:14:00,
2013-09-14 01:29:00,57.0,53.0,29.95,WNW,299,0.0,0.0,86,0.00,,,0.00,weatherlink.com 1.10,2013-09-14 05:29:00,
2013-09-14 01:59:00,55.4,52.0,29.95,WNW,299,0.0,0.0,89,0.00,,,0.00,weatherlink.com 1.10,2013-09-14 05:59:00,
2013-09-14 02:14:00,54.9,52.0,29.95,WNW,299,0.0,0.0,91,0.00,,,0.00,weatherlink.com 1.10,2013-09-14 06:14:00,
2013-09-14 02:29:00,54.2,52.0,29.96,WNW,299,0.0,0.0,91,0.00,,,0.00,weatherlink.com 1.10,2013-09-14 06:29:00,
2013-09-14 02:45:00,53.9,52.0,29.96,WNW,299,0.0,0.0,93,0.00,,,0.00,weatherlink.com 1.10,2013-09-14 06:45:00,
2013-09-14 03:00:00,53.6,52.0,29.96,WNW,299,0.0,1.0,93,0.00,,,0.00,weatherlink.com 1.10,2013-09-14 07:00:00,
2013-09-14 03:15:00,53.2,51.0,29.96,WNW,299,0.0,0.0,93,0.00,,,0.00,weatherlink.com 1.10,2013-09-14 07:15:00,
2013-09-14 03:30:00,53.4,52.0,29.96,WNW,299,0.0,1.0,94,0.00,,,0.00,weatherlink.com 1.10,2013-09-14 07:30:00,
2013-09-14 03:45:00,52.9,51.0,29.96,WNW,299,0.0,0.0,93,0.00,,,0.00,weatherlink.com 1.10,2013-09-14 07:45:00,
2013-09-14 04:00:00,52.5,51.0,29.97,WNW,299,0.0,0.0,93,0.00,,,0.00,weatherlink.com 1.10,2013-09-14 08:00:00,
2013-09-14 04:15:00,52.3,51.0,29.97,WNW,299,0.0,2.0,94,0.00,,,0.00,weatherlink.com 1.10,2013-09-14 08:15:00,
2013-09-14 04:30:00,51.8,50.0,29.98,WNW,299,0.0,0.0,94,0.00,,,0.00,weatherlink.com 1.10,2013-09-14 08:30:00,
2013-09-14 04:45:00,51.8,51.0,29.98,WNW,299,0.0,2.0,95,0.00,,,0.00,weatherlink.com 1.10,2013-09-14 08:45:00,
2013-09-14 05:00:00,52.1,51.0,29.98,WNW,299,0.0,0.0,95,0.00,,,0.00,weatherlink.com 1.10,2013-09-14 09:00:00,
2013-09-14 05:15:00,52.8,52.0,29.99,WNW,299,0.0,3.0,95,0.00,,,0.00,weatherlink.com 1.10,2013-09-14 09:15:00,
2013-09-14 05:30:00,54.0,52.0,30.00,NNW,327,1.0,1.0,94,0.00,,,0.00,weatherlink.com 1.10,2013-09-14 09:30:00,
2013-09-14 05:45:00,56.0,53.0,30.00,NNW,333,2.0,4.0,88,0.00,,,0.00,weatherlink.com 1.10,2013-09-14 09:45:00,
2013-09-14 06:00:00,56.6,53.0,30.00,WNW,300,2.0,7.0,86,0.00,,,0.00,weatherlink.com 1.10,2013-09-14 10:00:00,
2013-09-14 06:30:00,56.2,52.0,30.01,NW,319,2.0,4.0,84,0.00,,,0.00,weatherlink.com 1.10,2013-09-14 10:30:00,
2013-09-14 06:45:00,55.8,51.0,30.02,North,350,0.0,3.0,84,0.00,,,0.00,weatherlink.com 1.10,2013-09-14 10:45:00,
2013-09-14 07:00:00,55.5,51.0,30.04,NW,318,0.0,0.0,85,0.00,,,0.00,weatherlink.com 1.10,2013-09-14 11:00:00,
2013-09-14 07:45:00,55.8,52.0,30.06,NW,308,2.0,3.0,86,0.00,,,0.00,weatherlink.com 1.10,2013-09-14 11:45:00,
2013-09-14 08:00:00,56.6,52.0,30.06,North,10,1.0,6.0,83,0.00,,,0.00,weatherlink.com 1.10,2013-09-14 12:00:00,
2013-09-14 08:30:00,58.9,51.0,30.07,North,8,1.0,8.0,76,0.00,,,0.00,weatherlink.com 1.10,2013-09-14 12:30:00,
2013-09-14 08:45:00,60.1,51.0,30.08,NW,325,4.0,11.0,72,0.00,,,0.00,weatherlink.com 1.10,2013-09-14 12:45:00,
2013-09-14 09:00:00,60.4,51.0,30.09,NNE,23,2.0,8.0,70,0.00,,,0.00,weatherlink.com 1.10,2013-09-14 13:00:00,
2013-09-14 09:15:00,61.9,51.0,30.09,NNE,32,2.0,7.0,68,0.00,,,0.00,weatherlink.com 1.10,2013-09-14 13:15:00,
2013-09-14 09:30:00,62.6,51.0,30.10,North,1,7.0,12.0,65,0.00,,,0.00,weatherlink.com 1.10,2013-09-14 13:30:00,
2013-09-14 09:45:00,63.6,51.0,30.10,NNE,23,6.0,11.0,64,0.00,,,0.00,weatherlink.com 1.10,2013-09-14 13:45:00,
2013-09-14 10:00:00,63.8,50.0,30.10,North,4,7.0,13.0,62,0.00,,,0.00,weatherlink.com 1.10,2013-09-14 14:00:00,
2013-09-14 10:16:00,64.7,50.0,30.10,NNW,335,1.0,10.0,59,0.00,,,0.00,weatherlink.com 1.10,2013-09-14 14:16:00,
2013-09-14 10:31:00,65.0,50.0,30.11,NNW,333,4.0,15.0,58,0.00,,,0.00,weatherlink.com 1.10,2013-09-14 14:31:00,
2013-09-14 10:46:00,66.2,49.0,30.11,North,1,6.0,11.0,55,0.00,,,0.00,weatherlink.com 1.10,2013-09-14 14:46:00,
2013-09-14 11:01:00,66.6,49.0,30.11,North,1,9.0,12.0,54,0.00,,,0.00,weatherlink.com 1.10,2013-09-14 15:01:00,
2013-09-14 11:16:00,67.1,50.0,30.10,North,4,5.0,14.0,55,0.00,,,0.00,weatherlink.com 1.10,2013-09-14 15:16:00,
2013-09-14 11:31:00,67.3,49.0,30.10,NW,320,10.0,13.0,53,0.00,,,0.00,weatherlink.com 1.10,2013-09-14 15:31:00,
2013-09-14 11:46:00,68.1,50.0,30.11,NNE,25,7.0,11.0,52,0.00,,,0.00,weatherlink.com 1.10,2013-09-14 15:46:00,
2013-09-14 12:01:00,68.6,50.0,30.10,WNW,291,9.0,11.0,51,0.00,,,0.00,weatherlink.com 1.10,2013-09-14 16:01:00,
2013-09-14 12:16:00,69.3,50.0,30.10,North,359,6.0,9.0,51,0.00,,,0.00,weatherlink.com 1.10,2013-09-14 16:16:00,
2013-09-14 12:31:00,70.1,50.0,30.09,NW,326,6.0,15.0,49,0.00,,,0.00,weatherlink.com 1.10,2013-09-14 16:31:00,
2013-09-14 12:46:00,70.1,50.0,30.09,North,2,2.0,11.0,49,0.00,,,0.00,weatherlink.com 1.10,2013-09-14 16:46:00,
2013-09-14 13:01:00,70.4,50.0,30.09,East,93,4.0,9.0,48,0.00,,,0.00,weatherlink.com 1.10,2013-09-14 17:01:00,
2013-09-14 13:16:00,70.6,50.0,30.09,North,3,3.0,10.0,48,0.00,,,0.00,weatherlink.com 1.10,2013-09-14 17:16:00,
2013-09-14 13:31:00,70.9,50.0,30.08,North,352,2.0,11.0,48,0.00,,,0.00,weatherlink.com 1.10,2013-09-14 17:31:00,
2013-09-14 13:46:00,71.6,50.0,30.08,NNW,337,3.0,12.0,47,0.00,,,0.00,weatherlink.com 1.10,2013-09-14 17:46:00,
2013-09-14 14:01:00,72.6,52.0,30.07,WNW,300,5.0,7.0,49,0.00,,,0.00,weatherlink.com 1.10,2013-09-14 18:01:00,
2013-09-14 14:16:00,73.5,51.0,30.07,North,357,4.0,5.0,46,0.00,,,0.00,weatherlink.com 1.10,2013-09-14 18:16:00,
2013-09-14 14:31:00,72.7,51.0,30.06,ENE,77,4.0,8.0,47,0.00,,,0.00,weatherlink.com 1.10,2013-09-14 18:31:00,
2013-09-14 14:46:00,73.4,52.0,30.07,WNW,288,4.0,7.0,48,0.00,,,0.00,weatherlink.com 1.10,2013-09-14 18:46:00,
2013-09-14 15:01:00,73.8,52.0,30.07,NNW,348,3.0,9.0,46,0.00,,,0.00,weatherlink.com 1.10,2013-09-14 19:01:00,
2013-09-14 15:31:00,73.2,52.0,30.06,SE,129,1.0,5.0,47,0.00,,,0.00,weatherlink.com 1.10,2013-09-14 19:31:00,
2013-09-14 15:46:00,74.3,52.0,30.05,NW,318,1.0,8.0,45,0.00,,,0.00,weatherlink.com 1.10,2013-09-14 19:46:00,
2013-09-14 16:01:00,75.6,51.0,30.05,NNW,338,0.0,5.0,43,0.00,,,0.00,weatherlink.com 1.10,2013-09-14 20:01:00,
2013-09-14 16:16:00,75.6,53.0,30.05,South,179,2.0,4.0,45,0.00,,,0.00,weatherlink.com 1.10,2013-09-14 20:16:00,
2013-09-14 16:31:00,76.4,52.0,30.06,WSW,245,0.0,6.0,43,0.00,,,0.00,weatherlink.com 1.10,2013-09-14 20:31:00,
2013-09-14 16:46:00,75.7,52.0,30.06,North,10,1.0,5.0,43,0.00,,,0.00,weatherlink.com 1.10,2013-09-14 20:46:00,
2013-09-14 17:01:00,76.2,51.0,30.06,West,261,1.0,3.0,42,0.00,,,0.00,weatherlink.com 1.10,2013-09-14 21:01:00,
2013-09-14 17:16:00,75.0,52.0,30.06,WNW,286,3.0,6.0,44,0.00,,,0.00,weatherlink.com 1.10,2013-09-14 21:16:00,
2013-09-14 17:31:00,74.7,51.0,30.06,WNW,288,1.0,5.0,44,0.00,,,0.00,weatherlink.com 1.10,2013-09-14 21:31:00,
2013-09-14 17:46:00,75.3,52.0,30.07,West,268,0.0,3.0,44,0.00,,,0.00,weatherlink.com 1.10,2013-09-14 21:46:00,
2013-09-14 18:01:00,75.0,53.0,30.07,WSW,253,0.0,3.0,47,0.00,,,0.00,weatherlink.com 1.10,2013-09-14 22:01:00,
2013-09-14 18:16:00,73.7,56.0,30.08,SSE,152,0.0,2.0,55,0.00,,,0.00,weatherlink.com 1.10,2013-09-14 22:16:00,
2013-09-14 18:31:00,71.5,55.0,30.08,West,266,0.0,2.0,56,0.00,,,0.00,weatherlink.com 1.10,2013-09-14 22:31:00,
2013-09-14 18:46:00,70.1,55.0,30.08,WNW,301,0.0,0.0,60,0.00,,,0.00,weatherlink.com 1.10,2013-09-14 22:46:00,
2013-09-14 19:01:00,68.5,57.0,30.08,WNW,301,0.0,0.0,66,0.00,,,0.00,weatherlink.com 1.10,2013-09-14 23:01:00,
2013-09-14 19:16:00,65.8,57.0,30.08,WNW,301,0.0,1.0,72,0.00,,,0.00,weatherlink.com 1.10,2013-09-14 23:16:00,
2013-09-14 19:31:00,64.1,56.0,30.08,WNW,301,0.0,0.0,76,0.00,,,0.00,weatherlink.com 1.10,2013-09-14 23:31:00,
2013-09-14 19:46:00,62.1,56.0,30.09,WNW,301,0.0,0.0,80,0.00,,,0.00,weatherlink.com 1.10,2013-09-14 23:46:00,
2013-09-14 20:02:00,60.7,56.0,30.09,WNW,301,0.0,0.0,84,0.00,,,0.00,weatherlink.com 1.10,2013-09-15 00:02:00,
2013-09-14 20:17:00,59.7,56.0,30.10,WNW,301,0.0,0.0,86,0.00,,,0.00,weatherlink.com 1.10,2013-09-15 00:17:00,
2013-09-14 20:32:00,58.7,55.0,30.11,WNW,301,0.0,0.0,88,0.00,,,0.00,weatherlink.com 1.10,2013-09-15 00:32:00,
2013-09-14 22:02:00,54.9,53.0,30.14,North,8,0.0,0.0,93,0.00,,,0.00,weatherlink.com 1.10,2013-09-15 02:02:00,
2013-09-14 22:16:00,54.3,52.0,30.15,North,8,0.0,0.0,93,0.00,,,0.00,weatherlink.com 1.10,2013-09-15 02:16:00,
2013-09-14 22:31:00,54.1,53.0,30.15,North,8,0.0,0.0,94,0.00,,,0.00,weatherlink.com 1.10,2013-09-15 02:31:00,
2013-09-14 22:46:00,53.6,52.0,30.15,North,8,0.0,0.0,94,0.00,,,0.00,weatherlink.com 1.10,2013-09-15 02:46:00,
2013-09-14 23:01:00,53.1,52.0,30.15,North,8,0.0,0.0,94,0.00,,,0.00,weatherlink.com 1.10,2013-09-15 03:01:00,
2013-09-14 23:16:00,52.8,51.0,30.16,North,8,0.0,0.0,94,0.00,,,0.00,weatherlink.com 1.10,2013-09-15 03:16:00,
2013-09-14 23:32:00,52.6,51.0,30.16,North,8,0.0,0.0,94,0.00,,,0.00,weatherlink.com 1.10,2013-09-15 03:32:00,
2013-09-14 23:47:00,52.0,50.0,30.16,North,8,0.0,0.0,94,0.00,,,0.00,weatherlink.com 1.10,2013-09-15 03:47:00,